N2LQH Weather Reports


Display with metric or nautical units.
time (UTC)temp
F
wind
direction
speed
MPH
gust
MPH
rain 1hr
in
rain 24hr
in
rain mn
in
humidity
%
barometer
mb
20260504151054 67 196 6.0 14.0 0.00 0.00 0.00 49 1015.2
20260504150556 66 292 8.0 14.0 0.00 0.00 0.00 48 1015.2
20260504141055 63 275 6.0 18.0 0.00 0.00 0.00 56 1015.2
20260504140553 63 217 10.0 18.0 0.00 0.00 0.00 54 1015.3
20260504140112 63 260 9.0 17.0 0.00 0.00 0.00 54 1015.2
20260504130552 58 219 8.0 16.0 0.00 0.00 0.00 65 1015.5
20260504120136 48 187 4.0 7.0 0.00 0.00 0.00 90 1016.3
20260504110552 37 0 0.0 0.0 0.00 0.00 0.00 92 1016.2
20260504100551 33 0 0.0 0.0 0.00 0.00 0.00 88 1016.1
20260504081555 35 0 0.0 2.0 0.00 0.00 0.00 86 1016.1
20260504081050 35 0 0.0 2.0 0.00 0.00 0.00 86 1016.1
20260504080553 35 0 0.0 2.0 0.00 0.00 0.00 86 1016.0
20260504050555 38 360 2.0 5.0 0.00 0.00 0.00 83 1015.5
20260504050131 38 360 1.0 4.0 0.00 0.00 0.00 83 1015.5
20260504045554 38 0 0.0 4.0 0.00 0.00 0.00 83 1015.4
20260504045054 38 360 0.0 4.0 0.00 0.00 0.00 82 1015.4
20260504044558 38 360 1.0 4.0 0.00 0.00 0.00 83 1015.5
20260504044052 38 0 0.0 4.0 0.00 0.00 0.00 83 1015.4
20260504043553 38 0 1.0 4.0 0.00 0.00 0.00 82 1015.4
20260504043101 38 360 0.0 2.0 0.00 0.00 0.00 82 1015.3
20260504042555 38 0 0.0 2.0 0.00 0.00 0.00 82 1015.1
20260504042053 38 0 0.0 2.0 0.00 0.00 0.00 81 1015.2
20260504041554 38 0 0.0 2.0 0.00 0.00 0.00 81 1015.1
20260504041052 38 0 0.0 4.0 0.00 0.00 0.00 81 1015.1
20260504040555 39 360 1.0 4.0 0.00 0.00 0.00 80 1015.2
20260504040103 39 0 0.0 4.0 0.00 0.00 0.00 80 1015.1
20260504035555 39 360 0.0 4.0 0.00 0.00 0.00 79 1015.1
20260504035059 39 360 0.0 4.0 0.00 0.00 0.00 79 1015.0
20260504034556 39 0 0.0 4.0 0.00 0.00 0.00 79 1015.0
20260504034052 39 360 0.0 2.0 0.00 0.00 0.00 78 1015.0
20260504033552 39 0 0.0 2.0 0.00 0.00 0.00 78 1015.0
20260504033100 39 0 0.0 2.0 0.00 0.00 0.00 78 1015.1
20260504032555 39 0 0.0 2.0 0.00 0.00 0.00 77 1014.9
20260504032058 40 0 0.0 3.0 0.00 0.00 0.00 77 1015.1
20260504031629 40 360 0.0 3.0 0.00 0.00 0.00 77 1015.0
20260504031054 40 0 0.0 0.0 0.00 0.00 0.00 76 1015.0
20260504030555 40 0 0.0 0.0 0.00 0.00 0.00 75 1014.9
20260504030056 40 0 0.0 0.0 0.00 0.00 0.00 75 1014.9
20260504025556 41 0 0.0 0.0 0.00 0.00 0.00 74 1015.0
20260504025056 41 0 0.0 0.0 0.00 0.00 0.00 74 1014.9
20260504024556 41 0 0.0 0.0 0.00 0.00 0.00 73 1014.9
20260504024055 41 0 0.0 1.0 0.00 0.00 0.00 72 1015.0
20260504023555 42 0 0.0 1.0 0.00 0.00 0.00 71 1015.0
20260504023059 42 0 0.0 2.0 0.00 0.00 0.00 70 1015.0
20260504022555 42 0 0.0 3.0 0.00 0.00 0.00 70 1015.0
20260504022055 42 0 0.0 3.0 0.00 0.00 0.00 70 1015.0
20260504021609 43 0 0.0 2.0 0.00 0.00 0.00 68 1014.8
20260504021057 43 360 0.0 1.0 0.00 0.00 0.00 67 1014.9
20260504020556 43 0 0.0 1.0 0.00 0.00 0.00 66 1015.0
20260504020105 44 0 0.0 1.0 0.00 0.00 0.00 66 1014.9
20260504015553 44 0 0.0 1.0 0.00 0.00 0.00 64 1014.9
20260504015052 44 0 0.0 0.0 0.00 0.00 0.00 62 1014.9
20260504014600 45 0 0.0 0.0 0.00 0.00 0.00 61 1015.0
20260504014052 45 0 0.0 1.0 0.00 0.00 0.00 61 1015.0
20260504013554 45 0 0.0 1.0 0.00 0.00 0.00 61 1014.9
20260504013113 46 0 0.0 0.0 0.00 0.00 0.00 60 1014.9
20260504012558 46 0 0.0 3.0 0.00 0.00 0.00 59 1014.8
20260504012052 47 0 0.0 3.0 0.00 0.00 0.00 59 1014.8
20260504011558 47 0 0.0 0.0 0.00 0.00 0.00 58 1014.6
20260504011052 48 0 0.0 0.0 0.00 0.00 0.00 57 1014.4
20260504010553 48 0 0.0 0.0 0.00 0.00 0.00 56 1014.4
20260504010110 49 0 0.0 0.0 0.00 0.00 0.00 56 1014.4
20260504005555 50 0 0.0 0.0 0.00 0.00 0.00 55 1014.4
20260504005053 50 0 0.0 0.0 0.00 0.00 0.00 53 1014.2
20260504004558 51 0 0.0 0.0 0.00 0.00 0.00 51 1014.2
20260504004052 51 0 0.0 1.0 0.00 0.00 0.00 51 1014.1
20260504003554 52 0 0.0 1.0 0.00 0.00 0.00 50 1013.9
20260504003054 53 0 0.0 1.0 0.00 0.00 0.00 50 1013.7
20260504002553 53 0 0.0 1.0 0.00 0.00 0.00 48 1013.7
20260504002055 54 0 0.0 4.0 0.00 0.00 0.00 47 1013.6
20260504001609 54 0 0.0 4.0 0.00 0.00 0.00 46 1013.5
20260504001056 54 277 0.0 4.0 0.00 0.00 0.00 44 1013.5
20260504000553 55 0 1.0 4.0 0.00 0.00 0.00 43 1013.6
20260504000058 55 0 0.0 4.0 0.00 0.00 0.00 43 1013.5
20260503235554 56 0 0.0 4.0 0.00 0.00 0.00 42 1013.6
20260503235053 56 0 0.0 3.0 0.00 0.00 0.00 40 1013.5
20260503234557 56 0 0.0 6.0 0.00 0.00 0.00 39 1013.5
20260503234054 57 279 0.0 10.0 0.00 0.00 0.00 38 1013.4
20260503233557 57 319 2.0 10.0 0.00 0.00 0.00 37 1013.4
20260503233056 57 267 2.0 12.0 0.00 0.00 0.00 37 1013.2
20260503232553 57 302 3.0 12.0 0.00 0.00 0.00 37 1013.2
20260503232135 57 289 4.0 11.0 0.00 0.00 0.00 37 1013.2
20260503231557 57 341 5.0 13.0 0.00 0.00 0.00 37 1013.3
20260503231055 58 253 2.0 13.0 0.00 0.00 0.00 37 1013.2
20260503230557 58 293 3.0 9.0 0.00 0.00 0.00 37 1013.2
20260503230053 58 269 2.0 9.0 0.00 0.00 0.00 36 1013.2
20260503225554 58 275 3.0 9.0 0.00 0.00 0.00 37 1013.2
20260503225057 59 251 1.0 17.0 0.00 0.00 0.00 36 1013.2
20260503224553 59 266 4.0 17.0 0.00 0.00 0.00 34 1013.2
20260503224054 59 270 5.0 14.0 0.00 0.00 0.00 34 1013.2
20260503223554 60 305 4.0 13.0 0.00 0.00 0.00 34 1013.1
20260503223056 60 270 3.0 13.0 0.00 0.00 0.00 34 1013.1
20260503222553 60 262 4.0 13.0 0.00 0.00 0.00 35 1013.1
20260503222053 60 291 2.0 16.0 0.00 0.00 0.00 35 1013.2
20260503221553 60 0 6.0 19.0 0.00 0.00 0.00 33 1013.1
20260503221053 60 303 7.0 19.0 0.00 0.00 0.00 33 1013.3
20260503220555 60 326 3.0 11.0 0.00 0.00 0.00 33 1013.1
20260503220056 60 321 3.0 14.0 0.00 0.00 0.00 35 1013.1
20260503215555 60 315 3.0 16.0 0.00 0.00 0.00 34 1013.2
20260503215052 60 273 7.0 17.0 0.00 0.00 0.00 33 1013.2
20260503214556 60 319 4.0 17.0 0.00 0.00 0.00 33 1013.1
20260503214057 60 317 6.0 17.0 0.00 0.00 0.00 33 1013.1
20260503213555 60 0 6.0 14.0 0.00 0.00 0.00 33 1013.1
20260503213134 60 317 5.0 16.0 0.00 0.00 0.00 35 1013.1
20260503212558 60 0 3.0 16.0 0.00 0.00 0.00 35 1013.1
20260503212058 60 19 4.0 18.0 0.00 0.00 0.00 34 1013.0
20260503211619 59 304 9.0 18.0 0.00 0.00 0.00 36 1013.1
20260503211053 59 344 4.0 14.0 0.00 0.00 0.00 36 1013.1
20260503210555 59 339 6.0 14.0 0.00 0.00 0.00 34 1013.1
20260503210055 59 337 6.0 16.0 0.00 0.00 0.00 35 1013.2
20260503205552 59 344 8.0 18.0 0.00 0.00 0.00 33 1013.2
20260503205052 60 317 5.0 19.0 0.00 0.00 0.00 34 1013.3
20260503204608 60 316 6.0 20.0 0.00 0.00 0.00 34 1013.1
20260503204053 60 352 8.0 20.0 0.00 0.00 0.00 33 1013.2
20260503203553 60 296 8.0 21.0 0.00 0.00 0.00 33 1013.1
20260503203059 60 328 6.0 21.0 0.00 0.00 0.00 34 1013.2
20260503202553 59 26 6.0 21.0 0.00 0.00 0.00 34 1013.1
20260503202055 59 5 7.0 23.0 0.00 0.00 0.00 35 1013.2
20260503201556 59 331 7.0 23.0 0.00 0.00 0.00 34 1013.0
20260503201055 59 288 8.0 21.0 0.00 0.00 0.00 35 1013.2
20260503200555 60 319 5.0 20.0 0.00 0.00 0.00 35 1013.1
20260503200054 59 11 8.0 20.0 0.00 0.00 0.00 37 1013.2
20260503195555 59 315 5.0 25.0 0.00 0.00 0.00 35 1013.2
20260503195053 59 250 5.0 25.0 0.00 0.00 0.00 36 1013.2
20260503194554 59 341 11.0 25.0 0.00 0.00 0.00 34 1013.3
20260503194053 59 350 10.0 21.0 0.00 0.00 0.00 36 1013.1
20260503193553 59 272 8.0 21.0 0.00 0.00 0.00 34 1013.3
20260503193057 59 314 7.0 19.0 0.00 0.00 0.00 34 1013.4
20260503192553 59 280 6.0 20.0 0.00 0.00 0.00 37 1013.4
20260503192052 59 297 8.0 22.0 0.00 0.00 0.00 34 1013.5
20260503191603 59 341 10.0 22.0 0.00 0.00 0.00 38 1013.7
20260503191052 59 322 9.0 18.0 0.00 0.00 0.00 36 1013.7
20260503190553 59 319 6.0 16.0 0.00 0.00 0.00 34 1013.6
20260503190054 59 334 5.0 19.0 0.00 0.00 0.00 39 1013.8
20260503185553 58 15 8.0 19.0 0.00 0.00 0.00 35 1013.9
20260503185052 58 261 8.0 18.0 0.00 0.00 0.00 36 1013.9
20260503184618 58 0 8.0 18.0 0.00 0.00 0.00 37 1013.9
20260503184052 57 27 10.0 17.0 0.00 0.00 0.00 39 1013.9
20260503183554 57 352 8.0 17.0 0.00 0.00 0.00 40 1013.9
20260503183105 57 18 5.0 17.0 0.00 0.00 0.00 39 1014.0
20260503182554 57 301 8.0 17.0 0.00 0.00 0.00 40 1014.0
20260503182054 57 323 7.0 17.0 0.00 0.00 0.00 39 1014.1
20260503181552 56 336 5.0 15.0 0.00 0.00 0.00 42 1014.2
20260503181053 56 5 5.0 18.0 0.00 0.00 0.00 40 1014.1
20260503180553 57 0 5.0 18.0 0.00 0.00 0.00 40 1014.1
20260503180053 57 224 4.0 13.0 0.00 0.00 0.00 41 1014.2
20260503175553 55 236 6.0 18.0 0.00 0.00 0.00 42 1014.2
20260503175053 55 256 6.0 18.0 0.00 0.00 0.00 43 1014.4
20260503174610 56 319 7.0 18.0 0.00 0.00 0.00 41 1014.2
20260503174052 56 332 5.0 18.0 0.00 0.00 0.00 42 1014.3
20260503173552 57 334 7.0 19.0 0.00 0.00 0.00 41 1014.3
20260503173118 57 5 4.0 19.0 0.00 0.00 0.00 46 1014.0
20260503172555 55 88 6.0 23.0 0.00 0.00 0.00 43 1014.3
20260503172055 56 269 7.0 23.0 0.00 0.00 0.00 42 1014.2
20260503171600 57 260 6.0 17.0 0.00 0.00 0.00 43 1014.1
20260503171052 55 324 10.0 17.0 0.00 0.00 0.00 42 1014.1
20260503170555 55 332 8.0 20.0 0.00 0.00 0.00 42 1014.2